20051104,163730,146244,32.681379,-117.230508,18.394,0.808,0.212,NaN
20051104,164745,146859,32.655871,-117.227751,18.384,0.808,0.247,NaN
20051104,165800,147474,32.628632,-117.238471,18.379,0.808,0.238,NaN
20051104,170800,148075,32.625044,-117.264309,18.376,0.808,0.240,NaN
20051104,171800,148675,32.648882,-117.281115,18.377,0.808,0.236,NaN
20051104,172801,149275,32.675038,-117.295678,18.378,0.808,0.236,NaN
20051104,173801,149875,32.702258,-117.307249,18.384,0.809,0.229,NaN
20051104,174801,150476,32.731167,-117.313315,18.393,0.809,0.240,NaN
20051104,175817,151091,32.761075,-117.319468,18.403,0.809,0.257,NaN
20051104,180832,151706,32.791219,-117.325232,18.074,7.128,0.270,NaN
20051104,181832,152307,32.820963,-117.324795,16.490,33.140,0.337,NaN
20051104,182833,152907,32.849884,-117.321368,16.990,33.017,0.359,NaN
20051104,183848,153522,32.878684,-117.317055,17.378,33.144,0.312,NaN
20051104,184903,154137,32.906909,-117.312609,17.369,33.249,0.340,NaN
20051104,185904,154738,32.934274,-117.307925,17.237,33.287,0.316,NaN
20051104,190904,155339,32.954947,-117.304122,17.277,33.260,0.340,NaN
20051104,191905,155939,32.956023,-117.305294,17.363,33.266,0.349,NaN
20051104,192920,156554,32.955690,-117.306827,17.445,33.287,0.343,4
20051104,193935,157169,32.955196,-117.308890,17.409,33.285,0.343,6
20051104,194935,157769,32.954266,-117.310788,17.432,33.277,0.344,9
20051104,195950,158385,32.953446,-117.312450,17.507,33.271,0.347,NaN
20051104,201005,159000,32.952579,-117.313564,17.627,33.249,0.349,10
20051104,202005,159600,32.951868,-117.314715,17.756,33.292,0.357,11
20051104,203006,160200,32.951073,-117.318032,17.517,33.332,0.356,13
20051104,204006,160800,32.949966,-117.322227,17.521,33.283,0.356,14
20051104,205006,161400,32.948017,-117.326346,17.602,33.269,0.354,15
20051104,210021,162015,32.946532,-117.330724,17.681,33.270,0.351,NaN
20051104,211036,162630,32.945491,-117.334809,17.771,33.241,0.349,16
20051104,212036,163231,32.944763,-117.330839,17.740,33.310,0.308,NaN
20051104,213036,163831,32.949182,-117.299880,17.536,33.356,0.322,NaN
20051104,214037,164431,32.952987,-117.282307,17.552,33.281,0.328,18
20051104,215037,165031,32.952638,-117.283357,17.603,33.317,0.343,19
20051104,220052,165646,32.951653,-117.284751,17.547,33.348,0.337,20
20051104,221107,166262,32.950730,-117.285764,17.453,33.353,0.335,21
20051104,222122,166876,32.949678,-117.286988,17.528,33.305,0.327,23
20051104,223137,167492,32.947016,-117.289716,17.440,33.371,0.321,25
20051104,224152,168106,32.955147,-117.301767,17.574,33.276,0.297,NaN
20051104,225207,168722,32.978911,-117.317170,17.783,33.279,0.254,NaN
20051104,230207,169322,33.003396,-117.330414,17.886,33.322,0.221,NaN
20051104,231223,169937,33.028367,-117.344015,17.907,33.349,0.190,NaN
20051104,232238,170552,33.053270,-117.357715,17.949,33.357,0.347,NaN
20051104,233238,171152,33.077678,-117.370972,17.895,33.387,0.357,NaN
20051104,234238,171752,33.101900,-117.384564,17.825,33.372,0.395,NaN
20051104,235238,172352,33.126070,-117.398404,17.856,33.368,0.446,NaN
20051105,000238,172953,33.150107,-117.412059,17.829,33.361,0.451,NaN
20051105,001239,173554,33.174034,-117.425818,17.814,33.323,0.467,NaN
20051105,002239,174154,33.197425,-117.440220,17.818,33.293,0.487,NaN
20051105,003240,174754,33.221197,-117.453941,17.764,33.319,0.620,NaN
20051105,004240,175354,33.240452,-117.463432,17.733,33.333,0.601,NaN
20051105,005240,175955,33.241395,-117.464557,17.710,33.323,0.580,27
20051105,010255,176569,33.240151,-117.464132,17.746,33.309,0.486,30
20051105,011310,177185,33.239058,-117.463491,17.750,33.327,0.461,31
20051105,012310,177784,33.237263,-117.466505,17.754,33.327,0.411,33
20051105,013311,178385,33.218101,-117.462808,17.705,33.351,0.326,NaN
20051105,014311,178985,33.188826,-117.455749,17.579,33.375,0.279,NaN
20051105,015311,179585,33.159735,-117.448397,17.495,33.348,0.258,NaN
20051105,020311,180185,33.130712,-117.440970,17.474,33.333,0.264,NaN
20051105,021326,180801,33.100998,-117.433464,17.531,33.306,0.256,NaN
20051105,022341,181416,33.071221,-117.426149,17.627,33.302,0.247,NaN
20051105,023342,182016,33.042093,-117.419227,17.660,33.328,0.244,NaN
20051105,024342,182616,33.012835,-117.412838,17.675,33.322,0.242,NaN
20051105,025357,183232,32.982581,-117.408289,17.667,33.334,0.235,NaN
20051105,030412,183847,32.952141,-117.404262,17.635,33.324,0.232,NaN
20051105,031413,184447,32.923407,-117.398520,17.653,33.317,0.226,34
20051105,032413,185048,32.912140,-117.395757,17.657,33.298,0.229,35
20051105,033414,185649,32.910358,-117.398140,17.665,33.262,0.224,NaN
20051105,034415,186249,32.908683,-117.400258,17.691,33.259,0.221,NaN
20051105,035430,186864,32.906974,-117.401866,17.650,33.288,0.221,36
20051105,040445,187479,32.905191,-117.403312,17.624,33.293,0.223,NaN
20051105,041445,188079,32.903514,-117.405437,17.616,33.292,0.220,NaN
20051105,042445,188679,32.901807,-117.407853,17.619,33.293,0.219,NaN
20051105,043500,189294,32.900088,-117.409908,17.611,33.295,0.221,37
20051105,044516,189910,32.898452,-117.411947,17.605,33.293,0.221,NaN
20051105,045515,190510,32.897130,-117.414071,17.617,33.284,0.213,NaN
20051105,050516,191110,32.895953,-117.415825,17.608,33.294,0.214,NaN
20051105,051516,191710,32.894525,-117.417046,17.604,33.291,0.214,38
20051105,052516,192310,32.893681,-117.420914,17.605,33.297,0.214,40
20051105,053531,192925,32.892933,-117.425224,17.590,33.294,0.217,41
20051105,054546,193540,32.891787,-117.430342,17.588,33.300,0.222,42
20051105,055546,194141,32.890629,-117.434675,17.581,33.291,0.226,NaN
20051105,060547,194741,32.889565,-117.439188,17.594,33.287,0.227,43
20051105,061547,195341,32.885016,-117.448051,17.587,33.294,0.234,NaN
20051105,062602,195956,32.870455,-117.476708,17.557,33.295,0.238,NaN
20051105,063617,196571,32.855222,-117.508253,17.538,33.296,0.228,NaN
20051105,064617,197171,32.846858,-117.530549,17.525,33.289,0.232,45
20051105,065617,197771,32.845845,-117.533192,17.517,33.295,0.235,NaN
20051105,070617,198371,32.844904,-117.535320,17.524,33.282,0.230,47
20051105,071632,198987,32.844022,-117.537310,17.548,33.283,0.230,NaN
20051105,072648,199602,32.843340,-117.539770,17.538,33.290,0.229,NaN
20051105,073703,200218,32.842706,-117.542405,17.527,33.292,0.226,NaN
20051105,074718,200832,32.842131,-117.545148,17.530,33.289,0.229,NaN
20051105,075733,201447,32.841445,-117.547345,17.553,33.284,0.225,48
20051105,080748,202062,32.840810,-117.550082,17.547,33.290,0.230,50
20051105,081748,202663,32.840421,-117.555141,17.536,33.296,0.235,NaN
20051105,082748,203263,32.839517,-117.560969,17.546,33.287,0.233,52
20051105,083749,203863,32.838274,-117.566992,17.514,33.307,0.230,NaN
20051105,084804,204478,32.837456,-117.572240,17.563,33.269,0.231,NaN
20051105,085819,205094,32.835931,-117.579437,17.564,33.303,0.239,54
20051105,090819,205694,32.824848,-117.600314,17.566,33.281,0.242,NaN
20051105,091835,206309,32.808207,-117.630531,17.563,33.294,0.234,NaN
20051105,092850,206924,32.791792,-117.660669,17.557,33.287,0.244,NaN
20051105,093850,207524,32.775962,-117.690010,17.481,33.309,0.257,NaN
20051105,094850,208124,32.760348,-117.719197,17.459,33.294,0.260,NaN
20051105,095850,208724,32.744842,-117.748481,17.474,33.284,0.260,NaN
20051105,100850,209325,32.729402,-117.777935,17.586,33.251,0.261,NaN
20051105,101906,209940,32.713732,-117.808042,17.691,33.263,0.261,NaN
20051105,102921,210555,32.698166,-117.838390,17.690,33.309,0.295,NaN
20051105,103936,211170,32.684673,-117.864854,17.713,33.302,0.350,56
20051105,105006,211800,32.681533,-117.874602,17.724,33.313,0.378,57
20051105,110021,212415,32.681576,-117.877526,17.719,33.322,0.384,58
20051105,111021,213015,32.681324,-117.879278,17.709,33.324,0.379,NaN
20051105,112021,213616,32.681171,-117.881013,17.706,33.321,0.370,NaN
20051105,113037,214231,32.681007,-117.882857,17.698,33.324,0.369,NaN
20051105,114052,214846,32.680890,-117.884805,17.683,33.326,0.364,NaN
20051105,115052,215446,32.681117,-117.887287,17.675,33.323,0.356,59
20051105,120052,216046,32.681319,-117.889641,17.675,33.321,0.361,60
20051105,121052,216646,32.681765,-117.893598,17.690,33.315,0.376,62
20051105,122107,217262,32.682690,-117.899345,17.700,33.320,0.384,63
20051105,123123,217877,32.683842,-117.905761,17.701,33.312,0.373,NaN
20051105,124123,218477,32.685232,-117.910015,17.753,33.306,0.322,65
20051105,125123,219077,32.687495,-117.915056,17.804,33.320,0.286,66
20051105,130123,219677,32.681410,-117.930645,17.831,33.353,0.247,NaN
20051105,131123,220278,32.665879,-117.958009,17.764,33.408,0.239,NaN
20051105,132123,220877,32.650051,-117.985304,17.651,33.428,0.207,NaN
20051105,133138,221492,32.633433,-118.013133,17.365,33.494,0.240,NaN
20051105,134153,222108,32.616759,-118.041169,17.430,33.408,0.237,NaN
20051105,135209,222723,32.600549,-118.069090,17.489,33.430,0.248,NaN
20051105,140224,223339,32.584630,-118.096775,17.371,33.466,0.251,NaN
20051105,141225,223939,32.569172,-118.123287,17.469,33.379,0.272,NaN
20051105,142225,224539,32.552542,-118.148330,17.595,33.404,0.301,NaN
20051105,143225,225139,32.535410,-118.173079,17.667,33.412,0.320,NaN
20051105,144225,225740,32.519721,-118.198725,17.659,33.427,0.323,NaN
20051105,145226,226340,32.514490,-118.212369,17.641,33.415,0.330,NaN
20051105,150226,226941,32.515148,-118.214500,17.634,33.402,0.371,NaN
20051105,151227,227541,32.515799,-118.215848,17.632,33.397,0.346,NaN
20051105,152242,228156,32.516602,-118.217217,17.633,33.394,0.345,NaN
20051105,153257,228771,32.517562,-118.219030,17.632,33.393,0.346,NaN
20051105,154257,229372,32.518552,-118.221231,17.632,33.392,0.358,NaN
20051105,155258,229972,32.519463,-118.223228,17.630,33.392,0.355,NaN
20051105,160313,230588,32.520114,-118.224614,17.630,33.391,0.353,68
20051105,161329,231204,32.519833,-118.226577,17.624,33.396,0.438,NaN
20051105,162330,231804,32.519457,-118.229969,17.616,33.396,0.444,69
20051105,163330,232404,32.518913,-118.234545,17.606,33.396,0.449,NaN
20051105,164346,233020,32.518360,-118.238294,17.644,33.374,0.435,71
20051105,165401,233636,32.517469,-118.242253,17.691,33.369,0.448,72
20051105,170417,234251,32.510968,-118.254909,17.721,33.368,0.438,NaN
20051105,171432,234866,32.496540,-118.283049,17.675,33.401,0.446,NaN
20051105,172432,235466,32.481674,-118.311730,17.575,33.407,0.506,NaN
20051105,173432,236067,32.466537,-118.340532,17.454,33.422,0.499,NaN
20051105,174448,236682,32.450950,-118.369255,17.311,33.404,0.499,NaN
20051105,175503,237297,32.434393,-118.396951,17.288,33.372,0.541,NaN
20051105,180504,237898,32.418168,-118.423872,17.325,33.336,0.530,NaN
20051105,181505,238499,32.402279,-118.451149,17.311,33.361,0.532,NaN
20051105,182505,239099,32.387307,-118.478350,17.241,33.367,0.530,NaN
20051105,183505,239700,32.372436,-118.505134,17.139,33.376,0.546,NaN
20051105,184521,240315,32.357366,-118.532675,17.137,33.334,0.485,NaN
20051105,185536,240931,32.347715,-118.553191,17.162,33.330,0.435,73
20051105,190537,241531,32.347966,-118.554251,17.164,33.333,0.432,76
20051105,191537,242131,32.348514,-118.553582,17.170,33.331,0.398,NaN
20051105,192537,242732,32.349071,-118.552692,17.179,33.330,0.521,77
20051105,193538,243332,32.348701,-118.551891,17.176,33.334,0.496,NaN
20051105,194538,243932,32.348011,-118.551294,17.198,33.327,0.399,NaN
20051105,195553,244547,32.346979,-118.550515,17.201,33.335,0.463,NaN
20051105,200608,245163,32.346224,-118.549820,17.211,33.331,0.459,78
20051105,201623,245778,32.345403,-118.549158,17.216,33.332,0.448,79
20051105,202639,246393,32.345113,-118.550615,17.216,33.336,0.422,81
20051105,203640,246994,32.344840,-118.553052,17.201,33.339,0.532,NaN
20051105,204640,247595,32.342900,-118.557259,17.196,33.337,0.452,NaN
20051105,205640,248195,32.340658,-118.560866,17.195,33.335,0.463,NaN
20051105,210641,248795,32.338709,-118.563540,17.200,33.330,0.452,84
20051105,211642,249396,32.335205,-118.568142,17.206,33.328,0.470,NaN
20051105,212642,249996,32.325039,-118.585280,17.203,33.331,0.510,NaN
20051105,213642,250597,32.310619,-118.611504,17.250,33.313,0.516,NaN
20051105,214643,251198,32.296180,-118.637889,17.255,33.326,0.540,NaN
20051105,215643,251798,32.281717,-118.664436,17.243,33.021,0.498,NaN
20051105,220644,252399,32.267329,-118.691323,17.245,33.147,0.545,NaN
20051105,221659,253014,32.253143,-118.719281,17.249,33.254,0.556,NaN
20051105,222715,253629,32.240344,-118.747484,17.254,33.281,0.505,NaN
20051105,223715,254230,32.228262,-118.775406,17.263,33.283,0.573,NaN
20051105,224716,254830,32.216140,-118.803259,17.269,33.294,0.541,NaN
20051105,225731,255445,32.203712,-118.831740,17.298,33.283,0.557,NaN
20051105,230746,256061,32.192274,-118.860598,17.327,33.291,0.550,NaN
20051105,231747,256661,32.182100,-118.886166,17.339,33.289,0.526,86
20051105,232747,257261,32.179322,-118.892712,17.362,33.290,0.523,87
20051105,233747,257862,32.177425,-118.893963,17.360,33.297,0.535,88
20051105,234803,258477,32.176815,-118.896447,17.360,33.297,0.525,NaN
20051105,235818,259092,32.176534,-118.899452,17.366,33.300,0.500,NaN
20051106,000819,259693,32.175943,-118.902491,17.375,33.300,0.519,NaN
20051106,001819,260294,32.176092,-118.906466,17.370,33.306,0.460,NaN
20051106,002820,260894,32.176695,-118.911263,17.367,33.311,0.476,90
20051106,003820,261495,32.177310,-118.915407,17.358,33.313,0.414,91
20051106,004821,262095,32.177576,-118.919548,17.358,33.308,0.427,94
20051106,005821,262696,32.178273,-118.924212,17.355,33.318,0.393,95
20051106,010821,263295,32.177681,-118.930363,17.348,33.315,0.385,96
20051106,011821,263896,32.176072,-118.934898,17.341,33.314,0.372,NaN
20051106,012822,264496,32.175777,-118.940046,17.334,33.316,0.399,97
20051106,013838,265112,32.178611,-118.947828,17.324,33.316,0.441,NaN
20051106,014853,265728,32.184071,-118.959044,17.295,33.326,0.401,NaN
20051106,015853,266328,32.186931,-118.970900,17.274,33.319,0.499,NaN
20051106,020855,266929,32.172924,-118.993077,17.250,33.316,0.406,NaN
20051106,021855,267529,32.154929,-119.017828,17.258,33.325,0.409,NaN
20051106,022910,268144,32.136374,-119.042711,17.245,33.338,0.390,NaN
20051106,023925,268759,32.117765,-119.067751,17.227,33.338,0.367,NaN
20051106,024940,269375,32.099372,-119.092458,17.238,33.335,0.322,NaN
20051106,025955,269990,32.081197,-119.117198,17.244,33.342,0.316,NaN
20051106,030956,270590,32.063487,-119.141486,17.248,33.339,0.321,NaN
20051106,031956,271190,32.045670,-119.166187,17.216,33.350,0.323,NaN
20051106,032956,271790,32.029208,-119.192340,17.183,33.347,0.327,NaN
20051106,033956,272391,32.015337,-119.218786,17.166,33.345,0.347,NaN
20051106,034956,272991,32.012476,-119.231012,17.140,33.346,0.345,98
20051106,035957,273591,32.013163,-119.235023,17.127,33.341,0.354,99
20051106,041012,274206,32.013521,-119.238302,17.128,33.334,0.358,NaN
20051106,042027,274822,32.013840,-119.241773,17.115,33.333,0.344,100
20051106,043028,275422,32.014595,-119.245070,17.111,33.333,0.352,NaN
20051106,044028,276023,32.015310,-119.248338,17.105,33.333,0.350,NaN
20051106,045029,276624,32.016128,-119.252111,17.104,33.333,0.354,NaN
20051106,050030,277224,32.016902,-119.255866,17.120,33.327,0.365,NaN
20051106,051030,277825,32.017867,-119.259391,17.103,33.333,0.364,101
20051106,052031,278425,32.018355,-119.262850,17.106,33.328,0.372,102
20051106,053031,279025,32.018966,-119.267131,17.107,33.329,0.382,NaN
20051106,054031,279625,32.019220,-119.271256,17.104,33.329,0.382,105
20051106,055031,280225,32.019902,-119.277072,17.115,33.325,0.389,106
20051106,060046,280841,32.019871,-119.281786,17.101,33.331,0.375,NaN
20051106,061102,281457,32.019963,-119.286307,17.082,33.333,0.371,107
20051106,062102,282057,32.021122,-119.290485,17.071,33.330,0.375,NaN
20051106,063103,282657,32.020378,-119.298165,17.071,33.327,0.382,108
20051106,064104,283258,32.005264,-119.322165,17.089,33.325,0.425,NaN
20051106,065104,283859,31.987747,-119.347986,17.039,33.349,0.461,NaN
20051106,070119,284474,31.969520,-119.374253,16.977,33.333,0.459,NaN
20051106,071135,285089,31.951690,-119.399846,17.113,33.283,0.450,NaN
20051106,072135,285690,31.934696,-119.424514,17.199,33.301,0.417,NaN
20051106,073150,286305,31.917651,-119.450107,17.343,33.282,0.371,NaN
20051106,074205,286920,31.901158,-119.475831,17.442,33.298,0.310,NaN
20051106,075206,287520,31.884759,-119.500954,17.478,33.315,0.292,NaN
20051106,080206,288120,31.868735,-119.526860,17.482,33.340,0.281,NaN
20051106,081206,288720,31.854268,-119.553544,17.415,33.380,0.268,NaN
20051106,082206,289320,31.846753,-119.571981,17.314,33.413,0.297,110
20051106,083207,289921,31.845530,-119.574869,17.237,33.400,0.315,NaN
20051106,084222,290536,31.844311,-119.577052,17.222,33.403,0.336,NaN
20051106,085237,291152,31.843049,-119.579154,17.201,33.418,0.339,111
20051106,090252,291767,31.842603,-119.582285,17.196,33.418,0.359,113
20051106,091307,292382,31.842898,-119.586227,17.190,33.422,0.333,114
20051106,092308,292983,31.843403,-119.593511,17.218,33.414,0.328,115
20051106,093308,293583,31.843334,-119.599572,17.250,33.423,0.341,NaN
20051106,094308,294183,31.843731,-119.604623,17.246,33.431,0.345,116
20051106,095324,294799,31.844487,-119.607435,17.252,33.423,0.364,NaN
20051106,100340,295414,31.845646,-119.587552,17.226,33.430,0.324,NaN
20051106,101340,296014,31.847527,-119.574063,17.320,33.387,0.266,117
20051106,102340,296615,31.846760,-119.576432,17.336,33.427,0.266,NaN
20051106,103340,297215,31.845896,-119.578155,17.324,33.432,0.266,118
20051106,104341,297815,31.845077,-119.580050,17.311,33.437,0.268,NaN
20051106,105356,298430,31.843958,-119.581688,17.298,33.438,0.273,NaN
20051106,110411,299045,31.842564,-119.583391,17.287,33.438,0.275,NaN
20051106,111411,299645,31.841207,-119.584540,17.280,33.437,0.277,NaN
20051106,112411,300245,31.839808,-119.586050,17.273,33.438,0.280,119
20051106,113426,300861,31.840234,-119.588850,17.239,33.451,0.302,NaN
20051106,114441,301476,31.842937,-119.594939,17.194,33.430,0.349,NaN
20051106,115442,302076,31.848072,-119.603410,17.218,33.388,0.397,NaN
20051106,120442,302677,31.853045,-119.611841,17.272,33.402,0.349,NaN
20051106,121443,303277,31.853946,-119.623898,17.237,33.403,0.364,NaN
20051106,122443,303877,31.840758,-119.649878,17.244,33.395,0.362,NaN
20051106,123458,304493,31.825681,-119.677420,17.116,33.435,0.463,NaN
20051106,124514,305109,31.810082,-119.704553,17.138,33.379,0.421,NaN
20051106,125515,305709,31.794854,-119.731118,17.218,33.374,0.417,NaN
20051106,130530,306325,31.779618,-119.758515,17.268,33.386,0.440,NaN
20051106,131545,306940,31.764509,-119.785898,17.301,33.395,0.436,NaN
20051106,132546,307540,31.749838,-119.812450,17.131,33.490,0.464,NaN
20051106,133546,308140,31.734870,-119.839414,16.942,33.481,0.429,NaN
20051106,134546,308740,31.719729,-119.866377,16.705,33.486,0.439,NaN
20051106,135602,309356,31.703997,-119.893758,16.770,33.361,0.427,NaN
20051106,140617,309971,31.688349,-119.920926,16.890,33.362,0.442,NaN
20051106,141617,310571,31.673051,-119.947196,16.735,33.464,0.413,NaN
20051106,142617,311171,31.657648,-119.973519,16.338,33.486,0.742,NaN
20051106,143617,311772,31.641975,-119.999853,16.030,33.404,1.194,NaN
20051106,144618,312372,31.625766,-120.026055,16.006,33.325,1.074,NaN
20051106,145618,312973,31.609096,-120.051911,16.347,33.160,0.446,NaN
20051106,150634,313588,31.594261,-120.075665,16.713,33.215,0.351,NaN
20051106,151649,314204,31.579339,-120.098725,16.740,33.257,0.365,NaN
20051106,152649,314804,31.563403,-120.123480,16.758,33.265,0.369,NaN
20051106,153650,315404,31.548111,-120.148713,16.761,33.270,0.357,NaN
20051106,154705,316019,31.532389,-120.175058,16.772,33.269,0.376,NaN
20051106,155720,316635,31.516680,-120.201582,16.814,33.262,0.371,NaN
20051106,160720,317235,31.507120,-120.221644,16.848,33.259,0.313,120
20051106,161721,317835,31.508202,-120.224694,16.862,33.252,0.344,123
20051106,162736,318450,31.509181,-120.227918,16.874,33.244,0.287,124
20051106,163751,319066,31.511063,-120.232731,16.893,33.239,0.276,125
20051106,164752,319667,31.512465,-120.236990,16.904,33.241,0.292,NaN
20051106,165752,320266,31.513699,-120.240614,16.908,33.241,0.285,126
20051106,170807,320881,31.513869,-120.242440,16.911,33.242,0.327,127
20051106,171822,321497,31.513560,-120.244142,16.916,33.241,0.317,129
20051106,172837,322112,31.513616,-120.246346,16.921,33.242,0.293,NaN
20051106,173852,322727,31.513299,-120.248353,16.918,33.245,0.290,130
20051106,174908,323342,31.513152,-120.250441,16.916,33.244,0.266,NaN
20051106,175923,323958,31.512770,-120.252635,16.916,33.245,0.267,NaN
20051106,180939,324574,31.512596,-120.254916,16.917,33.247,0.277,NaN
20051106,181954,325189,31.512802,-120.257400,16.907,33.249,0.282,NaN
20051106,182955,325789,31.512982,-120.260065,16.900,33.249,0.318,131
20051106,183955,326389,31.506830,-120.271066,16.905,33.246,0.333,NaN
20051106,184955,326989,31.492496,-120.297060,16.889,33.262,0.316,NaN
20051106,185956,327590,31.476700,-120.325976,16.757,33.294,0.385,NaN
20051106,190956,328190,31.461458,-120.354536,16.856,33.204,0.429,NaN
20051106,192011,328805,31.445692,-120.384260,16.927,33.247,0.302,NaN
20051106,193026,329420,31.429637,-120.413344,16.951,33.262,0.313,NaN
20051106,194026,330021,31.414315,-120.441280,16.942,33.274,0.346,NaN
20051106,195041,330636,31.399193,-120.469550,16.885,33.261,0.390,NaN
20051106,200056,331251,31.384782,-120.497413,17.033,33.230,0.324,NaN
20051106,201057,331851,31.370575,-120.524673,17.017,33.272,0.395,NaN
20051106,202057,332452,31.356460,-120.551826,17.017,33.254,0.322,NaN
20051106,203058,333052,31.342507,-120.578655,17.115,33.242,0.382,NaN
20051106,204058,333652,31.328492,-120.605134,17.089,33.273,0.283,NaN
20051106,205058,334252,31.314572,-120.631542,17.207,33.218,0.241,NaN
20051106,210059,334853,31.300789,-120.658093,17.585,33.161,0.230,NaN
20051106,211100,335454,31.287854,-120.685679,17.735,33.266,0.243,NaN
20051106,212100,336054,31.275241,-120.713597,17.774,33.279,0.272,NaN
20051106,213100,336654,31.262711,-120.741835,17.815,33.287,0.316,NaN
20051106,214100,337254,31.250177,-120.770260,17.653,33.370,0.256,NaN
20051106,215100,337855,31.236905,-120.798223,17.523,33.270,0.255,NaN
20051106,220116,338470,31.223378,-120.826362,17.548,33.184,0.276,NaN
20051106,221131,339086,31.210461,-120.854397,17.587,33.138,0.260,NaN
20051106,222131,339685,31.197876,-120.881564,17.604,33.136,0.244,NaN
20051106,223146,340300,31.185127,-120.908859,17.652,33.129,0.257,NaN
20051106,224201,340915,31.180887,-120.920423,17.655,33.140,0.277,133
20051106,225202,341516,31.180459,-120.920802,17.653,33.142,0.287,NaN
20051106,230202,342116,31.180000,-120.921187,17.653,33.148,0.269,NaN
20051106,231202,342717,31.179570,-120.921761,17.655,33.150,0.270,138
20051106,232203,343317,31.179082,-120.922441,17.659,33.151,0.256,NaN
20051106,233203,343917,31.178497,-120.923009,17.659,33.154,0.250,NaN
20051106,234218,344532,31.178245,-120.923978,17.662,33.154,0.256,139
20051106,235233,345147,31.179854,-120.925659,17.664,33.159,0.255,140
20051107,000233,345747,31.181972,-120.927732,17.662,33.168,0.272,NaN
20051107,001233,346347,31.184240,-120.929977,17.659,33.175,0.287,143
20051107,002233,346948,31.187109,-120.933189,17.659,33.180,0.252,144
20051107,003233,347548,31.189674,-120.936786,17.655,33.185,0.233,NaN
20051107,004234,348148,31.191781,-120.939508,17.647,33.188,0.210,145
20051107,005250,348764,31.191686,-120.948117,17.636,33.196,0.204,147
20051107,010305,349380,31.178313,-120.973675,17.603,33.207,0.196,NaN
20051107,011306,349980,31.163681,-120.999990,17.557,33.216,0.190,NaN
20051107,012321,350595,31.148633,-121.026631,17.499,33.216,0.189,NaN
20051107,013336,351211,31.133747,-121.053216,17.481,33.216,0.192,NaN
20051107,014336,351811,31.119114,-121.079602,17.344,33.239,0.212,NaN
20051107,015337,352411,31.104752,-121.106130,17.506,33.112,0.192,NaN
20051107,020337,353012,31.090591,-121.132722,17.604,33.170,0.190,NaN
20051107,021337,353612,31.076773,-121.159339,17.632,33.131,0.186,NaN